Location: Newark
(49.5647°N, 8.2922°E)
Time: 07:36:21
(UTC+00:00)

Transit 2A - Pass Details

Date: 22 February 2020
Orbit: 597 x 962 km, 66.7° (Epoch: 08 April)

Event Time Altitude Azimuth Distance (km) Brightness Sun altitude
Rises 15:42:01 0° 288° (WNW) 2,864 9.7 10.4°
Reaches altitude 10° 15:45:42 10° 320° (NW) 2,004 8.4 9.8°
Maximum altitude 15:47:26 12° 343° (NNW) 1,900 8.0 9.6°
Drops below altitude 10° 15:49:14 10° 6° (N) 2,063 7.9 9.3°
Sets 15:53:10 0° 38° (NE) 3,061 8.5 8.8°
